Wind_Speed
25 25 24 24 24 24 24 24 23 22 22 22 24 25 25 25 26 26 27 28 29 31 32 33 34 35 36 37 37 38 39 40 41 42 43 43 43 43 44 44 44 44 45 45
28 28 28 28 27 27 27 28 27 26 25 26 27 27 27 28 28 28 29 31 32 32 33 34 35 37 38 38 39 40 41 41 42 42 43 44 44 45 45 45 45 46 46 47
32 31 32 31 29 30 30 30 31 30 29 29 30 29 30 31 31 32 33 34 34 34 34 36 37 38 39 40 41 41 41 42 43 43 44 44 45 46 47 47 47 47 48 48
36 35 36 34 33 33 33 33 33 33 33 33 33 32 32 33 33 34 34 35 36 36 37 38 39 40 41 41 41 42 43 44 44 45 45 46 46 47 48 48 48 49 49 49
40 40 40 38 36 36 37 36 35 36 36 36 35 35 35 35 36 36 37 38 38 39 39 40 41 42 43 43 44 44 45 45 46 47 47 48 48 48 49 49 50 50 50 51
42 43 43 41 41 40 40 40 38 38 39 39 39 39 39 39 39 40 40 41 41 41 42 43 43 44 45 46 46 47 47 48 48 49 49 49 50 50 50 51 51 51 51 52
44 45 45 44 44 44 43 42 42 41 42 42 42 43 42 41 42 42 43 43 44 44 45 45 46 47 48 48 48 49 49 50 50 50 50 51 51 52 52 52 52 52 52 52
47 48 48 47 47 46 46 45 45 45 44 45 45 45 45 45 45 45 46 47 47 47 47 47 48 48 49 50 50 50 50 50 50 51 51 51 52 52 52 52 52 52 52 52
49 49 49 49 49 49 48 48 48 48 47 48 47 47 48 48 48 49 49 50 50 49 49 50 50 50 51 51 51 51 51 51 52 52 52 52 53 53 52 52 52 52 52 52
51 50 50 51 51 51 50 50 50 50 50 49 49 49 50 50 50 51 51 51 51 51 51 51 51 52 52 52 52 52 52 52 52 52 52 52 52 52 52 52 52 52 52 52
53 52 52 52 51 51 51 51 52 52 52 51 51 51 51 52 52 52 52 51 51 52 52 51 51 52 52 52 51 51 51 51 51 52 51 51 51 51 51 51 51 51 52 52
53 53 53 52 51 51 52 52 53 53 53 53 53 53 52 53 52 52 51 50 50 50 50 50 50 51 51 50 50 50 50 50 50 51 50 50 50 50 50 51 51 51 51 51
53 53 54 53 53 53 53 53 52 52 52 52 52 52 52 51 51 50 49 49 50 50 49 49 50 50 49 49 49 49 49 49 49 49 50 50 50 50 50 50 50 50 50 50
53 53 54 53 53 52 52 52 51 51 51 51 51 51 50 50 49 49 49 49 48 48 48 48 48 48 48 48 49 48 49 49 49 49 50 50 51 51 51 50 49 49 49 49
50 51 52 51 51 51 51 50 50 49 49 49 49 49 49 49 48 48 48 48 48 48 48 48 48 48 48 48 48 48 49 49 49 50 50 50 50 50 50 50 48 47 47 46
48 48 48 49 48 49 49 49 48 48 48 48 48 48 48 48 48 47 48 48 48 48 48 48 48 48 48 48 48 48 49 49 49 49 49 49 49 49 48 48 47 46 46 46
45 46 46 46 47 47 47 47 47 46 46 46 46 46 46 46 46 46 46 47 47 47 47 47 48 48 48 48 48 48 48 49 49 49 49 49 48 48 47 46 46 46 46 46
44 44 44 44 45 45 44 45 45 45 45 44 44 44 45 45 45 46 46 46 46 46 47 47 48 48 48 48 49 48 48 48 49 49 48 48 47 47 46 45 45 45 45 45
42 42 42 43 43 43 43 43 43 43 43 44 44 44 44 45 45 45 46 46 46 47 46 47 48 48 48 48 48 48 48 48 47 47 47 46 46 45 44 44 43 43 43 43
39 39 39 40 41 42 42 42 42 42 42 42 43 43 43 43 44 45 45 45 45 46 47 47 47 47 47 47 48 47 47 47 46 45 45 44 43 42 42 41 40 40 40 40
37 38 39 39 40 40 41 41 42 42 43 43 44 44 44 44 44 45 46 46 45 47 47 46 46 46 46 46 46 45 45 44 44 43 42 41 41 40 39 38 38 38 38 38
35 36 37 37 37 37 38 39 40 41 42 42 43 44 44 45 45 45 46 46 45 45 46 45 45 45 45 44 44 43 42 42 41 41 40 40 39 38 37 37 36 36 36 36
34 35 36 36 37 37 37 37 38 39 40 40 42 43 43 44 44 44 44 43 43 43 44 44 44 43 43 42 41 41 40 40 39 39 38 37 37 36 36 36 35 34 33 33
34 34 35 35 36 36 36 36 37 37 38 39 39 40 41 40 40 40 41 40 40 41 40 41 41 41 40 40 40 40 39 38 37 37 36 36 35 35 34 34 33 31 30 29
35 35 34 34 34 34 35 36 36 36 36 36 36 36 37 37 37 37 37 38 38 38 38 38 38 38 38 38 38 37 37 36 35 35 34 34 33 32 32 30 29 27 26 26
35 35 34 34 34 34 34 34 34 34 35 35 34 35 35 36 36 36 36 36 36 36 36 36 36 36 36 35 35 35 34 34 33 33 32 31 31 30 28 27 26 25 24 24
34 34 34 34 34 34 34 34 34 34 34 34 34 34 34 34 34 35 35 35 35 35 34 34 33 33 33 33 32 32 31 30 30 29 29 28 28 26 25 24 24 23 22 21
Wind_Direction
289 290 290 290 289 287 288 290 289 290 289 289 283 279 277 277 275 274 273 271 270 269 270 271 271 272 273 273 273 273 274 275 276 276 277 278 278 278 279 279 279 279 278 278
285 286 287 286 286 287 287 287 287 287 288 288 284 280 278 277 275 273 273 274 274 273 273 273 273 273 273 273 274 275 275 276 276 277 278 278 278 279 279 279 279 279 279 279
283 283 283 283 285 286 287 287 286 286 286 285 283 281 279 277 276 275 275 275 275 275 275 275 275 274 274 274 275 276 277 277 277 277 277 278 278 279 278 279 279 279 280 280
283 282 282 285 285 286 285 284 284 284 284 283 282 280 279 278 277 276 276 275 275 275 276 276 277 277 276 276 276 277 277 277 278 278 278 278 279 279 278 278 278 279 279 280
282 282 283 283 285 285 283 282 282 282 282 281 280 278 278 278 278 277 276 276 276 276 276 276 277 277 278 278 278 279 279 279 279 279 279 279 279 279 279 279 279 279 279 279
281 281 282 283 283 282 282 281 281 281 280 280 279 278 278 278 278 277 277 277 277 277 278 278 278 278 279 279 279 279 280 279 279 280 280 280 280 280 279 279 279 279 279 279
279 279 280 282 282 282 281 282 281 280 280 279 279 278 278 277 277 277 277 277 278 278 279 279 279 280 280 280 281 281 280 280 280 281 281 281 280 280 280 280 280 280 280 280
276 277 280 280 280 280 280 280 280 280 279 279 278 278 277 277 277 277 278 278 279 280 280 281 281 281 281 282 281 281 281 281 281 281 281 281 281 281 281 280 280 280 280 280
275 277 278 278 278 279 279 279 279 279 278 279 278 277 277 277 278 279 279 280 280 280 281 281 281 282 282 282 281 281 281 281 281 281 281 281 281 281 281 280 280 280 281 281
274 275 275 276 277 278 278 278 278 278 278 278 279 279 278 278 279 279 280 280 280 281 281 282 282 282 282 282 282 281 281 281 281 281 281 282 281 281 281 281 281 281 281 281
273 273 274 274 275 276 277 277 277 277 278 278 278 278 279 279 279 280 280 280 281 281 282 282 282 282 283 283 283 282 282 281 281 281 281 282 282 282 282 281 281 282 282 281
271 272 272 273 274 275 276 277 277 277 277 277 277 278 279 280 280 281 280 280 281 281 281 282 282 282 283 283 283 282 282 282 281 281 281 281 281 281 282 282 282 282 282 281
271 271 271 272 273 274 275 276 277 277 277 277 278 279 279 280 280 280 281 281 281 282 282 282 282 282 282 282 282 282 282 282 282 282 281 281 281 281 281 281 281 281 281 281
270 271 271 272 273 275 276 276 277 276 276 278 279 279 279 280 280 280 281 281 282 282 282 282 282 282 283 282 282 282 282 282 282 282 282 282 281 281 281 281 281 280 280 280
269 270 271 272 273 274 275 276 276 276 276 277 278 278 279 279 279 280 280 281 281 281 281 282 282 283 283 283 282 282 283 282 282 283 283 284 283 282 281 281 280 279 279 279
270 270 271 272 273 273 274 275 275 276 277 278 278 278 278 279 279 280 280 281 281 281 282 282 283 283 283 283 283 283 283 283 283 283 284 284 284 283 281 280 280 279 279 279
270 271 272 272 273 273 274 274 275 276 277 278 278 279 278 279 279 279 280 280 280 281 282 283 283 283 283 283 283 283 283 283 283 283 283 284 283 283 282 281 280 280 280 280
271 271 271 272 273 273 274 274 274 275 275 277 278 278 278 278 278 278 278 279 280 281 282 282 282 283 283 284 285 285 285 284 284 284 284 284 285 284 283 282 282 281 280 281
272 271 272 272 273 274 274 274 274 275 275 275 276 276 277 277 277 278 278 279 280 281 282 283 283 284 284 285 285 285 285 285 284 284 284 285 285 284 284 283 282 281 280 281
272 272 273 273 274 274 275 275 275 275 276 277 278 278 278 279 279 279 279 280 281 281 282 283 283 284 284 285 285 285 284 284 284 284 285 285 285 284 284 283 283 281 280 281
272 272 274 275 275 275 276 276 277 277 277 278 279 280 280 280 280 280 281 281 281 282 282 283 283 284 285 285 285 285 285 285 285 284 284 284 284 284 284 283 283 283 282 282
274 274 275 275 276 276 276 276 278 279 279 279 281 281 282 282 281 281 282 282 282 282 282 283 283 284 285 285 285 285 285 285 285 285 284 284 284 284 284 284 284 284 283 283
277 278 278 278 277 277 278 279 280 281 282 282 283 283 284 284 284 283 283 283 283 283 283 283 284 284 284 284 285 285 285 285 285 284 284 285 284 284 284 285 285 285 283 283
280 280 280 280 280 280 280 280 282 283 284 284 285 285 286 285 284 284 283 283 283 283 284 284 284 284 284 284 285 286 286 285 285 284 284 284 284 284 285 285 284 283 282 281
280 280 281 282 284 284 283 283 284 285 285 286 286 287 286 286 285 285 284 284 285 285 285 285 285 284 284 285 285 285 286 285 284 284 284 284 284 284 284 283 282 280 279 280
281 281 281 282 284 285 285 285 285 285 285 286 287 287 287 287 287 287 287 287 287 287 287 287 286 286 286 285 285 285 284 285 285 285 284 283 283 282 281 280 279 279 278 278
280 280 281 282 283 284 285 286 287 288 287 288 288 289 288 288 288 289 289 288 288 288 289 288 288 288 287 287 286 285 285 285 286 285 283 282 281 280 279 278 278 278 277 276
Height
5683 5682 5681 5680 5679 5677 5676 5675 5674 5673 5672 5672 5669 5668 5667 5667 5666 5666 5666 5666 5666 5666 5666 5665 5665 5665 5665 5664 5664 5663 5663 5662 5661 5660 5660 5659 5658 5657 5656 5656 5655 5653 5652 5651
5677 5676 5674 5673 5673 5671 5670 5669 5667 5666 5666 5665 5663 5661 5660 5659 5659 5658 5658 5658 5657 5657 5657 5656 5656 5655 5654 5654 5653 5653 5652 5651 5650 5649 5648 5647 5646 5645 5644 5643 5642 5641 5640 5638
5668 5668 5666 5665 5667 5665 5663 5662 5660 5659 5659 5657 5656 5654 5653 5652 5651 5650 5650 5649 5648 5648 5647 5647 5646 5645 5644 5643 5642 5641 5640 5639 5638 5637 5636 5634 5633 5632 5631 5630 5629 5628 5626 5625
5658 5658 5656 5660 5657 5656 5654 5653 5652 5651 5650 5648 5647 5646 5645 5643 5642 5642 5641 5640 5639 5638 5637 5636 5635 5634 5633 5631 5630 5629 5628 5627 5626 5624 5623 5622 5620 5619 5618 5616 5615 5614 5612 5610
5647 5645 5646 5649 5648 5646 5644 5644 5644 5642 5640 5639 5637 5636 5636 5634 5633 5632 5631 5630 5629 5627 5626 5625 5623 5622 5621 5620 5618 5617 5615 5614 5613 5611 5610 5608 5607 5605 5604 5602 5601 5599 5598 5596
5636 5634 5634 5638 5637 5634 5634 5633 5634 5631 5630 5629 5627 5626 5627 5624 5623 5621 5620 5618 5617 5616 5614 5613 5612 5610 5608 5607 5605 5604 5602 5600 5599 5597 5595 5594 5592 5591 5589 5587 5586 5584 5583 5581
5625 5622 5623 5626 5624 5622 5623 5623 5621 5619 5618 5617 5615 5615 5614 5612 5611 5609 5608 5606 5605 5603 5602 5600 5599 5597 5595 5594 5592 5590 5588 5586 5584 5583 5581 5579 5577 5576 5574 5572 5571 5570 5568 5566
5612 5611 5614 5613 5611 5610 5610 5608 5607 5606 5605 5604 5603 5601 5600 5599 5598 5596 5595 5593 5592 5590 5589 5587 5585 5583 5581 5580 5578 5576 5574 5572 5570 5568 5566 5564 5562 5560 5559 5557 5555 5554 5552 5551
5600 5602 5600 5598 5597 5596 5595 5594 5593 5592 5591 5590 5589 5588 5587 5585 5584 5583 5581 5580 5578 5576 5575 5573 5571 5569 5567 5565 5563 5561 5559 5557 5555 5553 5551 5549 5547 5545 5543 5541 5540 5538 5536 5535
5585 5586 5586 5584 5582 5581 5580 5579 5579 5578 5577 5575 5574 5574 5572 5571 5570 5568 5567 5565 5563 5562 5560 5559 5556 5554 5552 5550 5547 5546 5544 5542 5540 5538 5536 5534 5532 5530 5528 5526 5524 5522 5521 5519
5570 5571 5570 5569 5568 5567 5566 5565 5564 5563 5562 5561 5560 5559 5558 5556 5555 5553 5552 5550 5548 5547 5545 5544 5541 5539 5537 5534 5532 5530 5528 5526 5524 5522 5521 5519 5517 5515 5513 5510 5508 5506 5505 5503
5555 5556 5554 5554 5553 5552 5551 5550 5549 5548 5547 5546 5545 5544 5542 5541 5539 5538 5537 5535 5534 5532 5530 5528 5526 5524 5521 5519 5517 5515 5513 5511 5509 5507 5505 5503 5502 5500 5497 5495 5493 5491 5489 5487
5539 5539 5538 5538 5537 5536 5535 5534 5533 5532 5531 5530 5529 5528 5527 5526 5524 5523 5522 5520 5518 5517 5515 5513 5511 5509 5506 5504 5502 5500 5498 5496 5494 5492 5490 5488 5487 5485 5483 5481 5478 5476 5474 5471
5523 5523 5522 5522 5522 5521 5520 5519 5518 5517 5516 5515 5514 5513 5512 5511 5510 5508 5507 5505 5504 5502 5500 5498 5496 5493 5491 5489 5487 5485 5483 5481 5479 5477 5475 5473 5471 5469 5467 5466 5464 5462 5459 5456
5507 5507 5506 5506 5506 5505 5504 5504 5503 5502 5501 5501 5500 5498 5497 5496 5495 5494 5492 5490 5489 5487 5485 5483 5481 5478 5476 5474 5472 5470 5468 5466 5464 5462 5460 5458 5456 5454 5452 5450 5448 5447 5445 5443
5492 5492 5491 5491 5491 5491 5490 5489 5488 5488 5487 5486 5485 5484 5482 5481 5480 5479 5477 5476 5474 5473 5470 5468 5466 5464 5461 5459 5458 5456 5454 5451 5449 5447 5445 5443 5440 5438 5436 5434 5433 5431 5430 5428
5478 5478 5477 5477 5477 5476 5476 5475 5474 5473 5472 5471 5470 5469 5468 5467 5465 5464 5463 5461 5459 5458 5456 5453 5451 5449 5447 5445 5443 5441 5439 5436 5434 5432 5430 5428 5425 5423 5421 5419 5417 5416 5415 5413
5463 5463 5463 5463 5462 5462 5461 5460 5460 5459 5458 5457 5456 5455 5454 5452 5451 5450 5448 5447 5445 5443 5441 5438 5436 5434 5432 5430 5427 5425 5423 5421 5419 5417 5415 5413 5410 5408 5406 5404 5402 5401 5400 5399
5450 5450 5450 5449 5449 5448 5447 5446 5446 5445 5444 5443 5442 5441 5440 5438 5436 5435 5433 5432 5431 5429 5427 5424 5422 5419 5417 5415 5413 5411 5409 5407 5405 5402 5400 5398 5396 5394 5392 5390 5388 5386 5385 5384
5437 5437 5437 5436 5435 5435 5434 5433 5433 5432 5431 5430 5429 5427 5426 5425 5422 5421 5419 5418 5416 5414 5412 5410 5407 5405 5403 5400 5398 5396 5394 5392 5390 5388 5386 5384 5382 5380 5378 5376 5374 5373 5372 5371
5426 5425 5425 5424 5423 5422 5421 5421 5420 5419 5418 5417 5415 5414 5412 5411 5409 5407 5405 5404 5403 5399 5397 5395 5393 5391 5388 5386 5384 5382 5380 5378 5376 5374 5372 5370 5368 5366 5365 5363 5361 5360 5359 5358
5414 5414 5413 5412 5411 5410 5409 5408 5407 5406 5405 5403 5402 5400 5398 5397 5395 5392 5391 5389 5387 5385 5383 5381 5379 5377 5374 5372 5370 5368 5366 5364 5362 5360 5358 5357 5355 5354 5353 5351 5349 5348 5346 5345
5403 5402 5402 5401 5400 5399 5398 5397 5395 5393 5392 5390 5388 5386 5384 5382 5380 5378 5377 5375 5372 5371 5368 5367 5365 5363 5361 5359 5357 5355 5353 5351 5349 5348 5346 5344 5343 5342 5340 5339 5338 5336 5335 5334
5393 5392 5391 5389 5388 5387 5386 5385 5383 5381 5379 5377 5375 5373 5371 5368 5367 5365 5363 5361 5359 5357 5355 5354 5351 5350 5348 5346 5344 5342 5341 5339 5337 5336 5334 5333 5331 5330 5329 5327 5326 5325 5324 5324
5382 5381 5380 5378 5377 5376 5375 5373 5372 5370 5368 5366 5364 5361 5359 5356 5354 5353 5351 5349 5347 5345 5343 5341 5339 5337 5335 5333 5332 5330 5328 5327 5325 5324 5323 5321 5320 5319 5318 5317 5316 5315 5315 5314
5371 5370 5369 5368 5366 5365 5363 5362 5360 5358 5356 5354 5353 5350 5348 5345 5343 5341 5339 5337 5335 5333 5331 5329 5327 5325 5323 5322 5320 5318 5317 5316 5314 5313 5312 5311 5309 5308 5308 5307 5306 5306 5306 5306
5360 5359 5358 5357 5356 5354 5352 5350 5349 5347 5345 5343 5341 5339 5336 5334 5332 5330 5327 5326 5324 5322 5320 5318 5316 5314 5312 5311 5309 5307 5306 5305 5304 5303 5301 5300 5300 5299 5298 5298 5298 5298 5298 5298